Location: Kuppenheim
(48.8299°N, 8.2568°E)
Time: 11:11:00
(UTC+00:00)

NOSS 2-2 (E) - Pass Details

Date: 20 June 2021
Orbit: 448 x 1757 km, 63.3° (Epoch: 26 July)

Event Time Altitude Azimuth Distance (km) Brightness Sun altitude
Exits shadow 02:07:49 11° 244° (WSW) 1,531 5.0 -9.5°
Maximum altitude 02:10:59 47° 319° (NW) 649 3.8 -9.2°
Drops below altitude 10° 02:14:49 10° 34° (NE) 1,835 7.7 -8.8°
Sets 02:17:21 0° 41° (NE) 2,888 9.5 -8.5°
